Regional Weather Roundup
Issued by NWS

Home | Current Version | Previous Version | Text Only | Print | Product List | Glossary Off
Versions: 1 2 3 4 5 6 7 8 9 10 11 12 13 14 15 16 17 18 19 20 21 22 23 24 25 26 27 28 29 30 31 32 33 34 35 36 37 38 39 40 41 42 43 44 45 46 47 48 49 50

000
ASUS43 KLOT 061122
RWRIL

ILLINOIS REGIONAL WEATHER ROUNDUP
NATIONAL WEATHER SERVICE CHICAGO/ROMEOVILLE IL
600 AM CDT MON JUL 06 2015

NOTE: "FAIR" INDICATES FEW OR NO CLOUDS BELOW 12,000 FEET WITH NO
SIGNIFICANT WEATHER AND/OR OBSTRUCTIONS TO VISIBILITY.

* THESE STATIONS ARE NOT UNDER NWS QUALITY CONTROL. THEY ALSO MAY NOT
  REPORT WEATHER SUCH AS PRECIPITATION OR FOG.

ILZ001-002-007-009-015-016-024-061200-
NORTHWEST ILLINOIS

CITY           SKY/WX    TMP DP  RH WIND       PRES   REMARKS
MOLINE         MOCLDY    72  67  84 S5        29.92S HAZE
STERLING*      MOCLDY    68  64  88 S3        29.95S
SAVANNA*       MOCLDY    67  65  91 SE5       29.93S FOG
$$

ILZ003-004-008-010-011-017-018-061200-
NORTH CENTRAL ILLINOIS

CITY           SKY/WX    TMP DP  RH WIND       PRES   REMARKS
ROCKFORD       CLOUDY    66  62  87 S5        29.97S FOG
FREEPORT*      MOCLDY    65  63  93 S7        29.96S FOG
ROCHELLE*      PTCLDY    64  62  96 S6        29.98R FOG
DE KALB*       PTCLDY    62  60  94 S8        29.99S FOG
PERU*          PTCLDY    67  63  87 S3        29.98S FOG
$$

ILZ005-006-012>014-019>023-061200-
NORTHEAST ILLINOIS

CITY           SKY/WX    TMP DP  RH WIND       PRES   REMARKS
CHICAGO-OHARE  PTCLDY    66  63  90 S6        29.98R FOG
CHICAGO-MIDWAY PTCLDY    71  65  81 S8        30.00R
AURORA         CLEAR     65  61  87 SE6       29.99S FOG
LANSING*       CLEAR     66  63  88 S8        30.00S FOG
JOLIET*        CLOUDY    67  66  95 CALM      30.00R FOG
WAUKEGAN       CLEAR     64  62  93 S7        29.98R FOG
DUPAGE AIRPORT CLEAR     66  63  90 S5        29.98R FOG
KANKAKEE*      CLEAR     67  65  94 S6        30.02S FOG
WHEELING       CLEAR     65  61  87 S6        30.00R FOG
MORRIS*        CLEAR     65  63  92 S5        29.97S FOG
ROMEOVILLE*    CLOUDY    66  64  93 S7        30.00R FOG
NORTHERLY ISL    N/A     70  63  78 S9          N/A
$$

LMZ740>746-061200-
SOUTHERN LAKE MICHIGAN

STATION/POSITION SKY/WX   TEMP    WIND        PRES    VSBY  WAVE
                          AIR SEA DIR/SP/G                  HT/PER
                          (F)     (DEG/KT/KT) (MB)    (MI)  (FT/S)
HARRISON CRIB              70     190/ 13/ 15   N/A
BURNHAM HARBOR             70     180/  7/  9   N/A
CALUMET HARBOR             69     200/  4/  9   N/A
BURNS HARBOR               69     170/  8/ 13 1016.6F
MICHIGAN CITY              69     150/ 11/ 15   N/A
MICHIGAN CITY 6N           67 66  190/ 10/ 12   N/A           1
ST. JOSEPH                 67 65  200/  8/ 10   N/A           1
$$

ILZ025>027-034>036-040-047-049-050-058-095>099-061200-
WEST-CENTRAL ILLINOIS

CITY           SKY/WX    TMP DP  RH WIND       PRES   REMARKS
QUINCY         MOCLDY    73  70  90 S9        29.94S FOG
GALESBURG*     MOCLDY    68  67  95 S7        29.95R FOG
MACOMB*        MOCLDY    69  68  98 S5        29.97R FOG
JACKSONVILLE*  PTCLDY    73  69  89 S7        29.97R FOG
PITTSFIELD*    MOCLDY    70  68  93 S5        29.97S FOG
$$

ILZ028>032-037-038-041>044-048-051>054-059>061-061200-
CENTRAL ILLINOIS

CITY           SKY/WX    TMP DP  RH WIND       PRES   REMARKS
PONTIAC        CLEAR     66  65  94 S6        30.00S FOG
BLOOMINGTON    CLEAR     67  65  93 S8        30.01F FOG
DECATUR        CLEAR     68  64  87 S6        30.03R FOG
PEORIA         PTCLDY    70  65  84 S6        29.97F HAZE
LACON*         PTCLDY    67  64  90 S6        29.96F FOG
LINCOLN*       CLEAR     65  63  93 S3        30.00F FOG
SPRINGFIELD    CLEAR     72  66  81 S12       29.99S HAZE
TAYLORVILLE    CLEAR     64  64 100 SE6       30.02S FOG
$$

ILZ033-039-045-046-055>057-062-063-061200-
EAST-CENTRAL ILLINOIS

CITY           SKY/WX    TMP DP  RH WIND       PRES   REMARKS
CHAMPAIGN      CLEAR     67  65  93 S6        30.03F FOG
DANVILLE*      FOG       63  63  99 SE3       30.03R VSB 1/4
RANTOUL*       FOG       65  64  98 S5        30.03F VSB<1/4
MATTOON        CLEAR     68  66  93 S6        30.05R FOG
PARIS*           N/A     65  65  99 CALM      30.07R FOG
$$

ILZ079-100>102-061200-
SOUTHWEST ILLINOIS

CITY           SKY/WX    TMP DP  RH WIND       PRES   REMARKS
ALTON          CLEAR     67  67 100 SE5       30.01S FOG
BELLEVILLE     PTCLDY    68  68 100 SE5       30.01S FOG
CAHOKIA*       CLEAR     71  68  90 S7        30.00R FOG
SPARTA*        CLOUDY    70  69  96 SE3       30.04S FOG
$$

ILZ064>066-069>071-074>076-080>082-084>086-088>090-092>094-061200-
SOUTH-CENTRAL ILLINOIS

CITY           SKY/WX    TMP DP  RH WIND       PRES   REMARKS
CARBONDALE     CLOUDY    71  69  93 S5        30.06R FOG
CAIRO*         CLOUDY    74  72  95 S8        30.07R
EFFINGHAM*     PTCLDY    66  64  91 E3        30.07R FOG
MARION         MOCLDY    70  70 100 SW3       30.07R FOG
MT. VERNON     CLEAR     66  63  88 CALM      30.07R
CENTRALIA*     PTCLDY    69  65  90 CALM      30.05R FOG
SALEM*         CLEAR     70  67  88 S3        30.06R FOG
$$

ILZ067-068-072-073-078-083-087-091-061200-
SOUTHEAST ILLINOIS

CITY           SKY/WX    TMP DP  RH WIND       PRES   REMARKS
LAWRENCEVILLE  CLEAR     66  65  96 E3        30.07R FOG
FLORA*         MOCLDY    65  65  99 CALM      30.07R FOG
FAIRFIELD*     CLEAR     68  67  96 CALM      30.06R FOG
HARRISBURG*    CLEAR     67  67 100 CALM      30.07S FOG
ROBINSON*      CLEAR     65  64  97 CALM      30.08R FOG
CARMI*         MOCLDY    69  65  88 S6        30.06R FOG
$$

ABBREVIATIONS USED IN REMARKS
   TC - TEMPERATURE IN CELSIUS
  WCI - WIND CHILL INDEX
   HX - HEAT INDEX
  VSB - VISIBILITY
$$




USA.gov is the U.S. government's official web portal to all federal, state and local government web resources and services.